Regional Weather Roundup
Issued by NWS Cleveland, OH

Home | Current Version | Previous Version | Text Only | Print | Product List | Glossary Off
Versions: 1 2 3 4 5 6 7 8 9 10 11 12 13 14 15 16 17 18 19 20 21 22 23 24 25 26 27 28 29 30 31 32 33 34 35 36 37 38 39 40 41 42 43 44 45 46 47 48 49 50

000
ASUS41 KCLE 300400
RWRCLE
OHIO REGIONAL WEATHER ROUNDUP
NATIONAL WEATHER SERVICE WILMINGTON, OH
1100 PM EST THU JAN 29 2015

NOTE: "FAIR" INDICATES FEW OR NO CLOUDS BELOW 12,000 FEET WITH NO
SIGNIFICANT WEATHER AND/OR OBSTRUCTIONS TO VISIBILITY.

OHZ001>008-015>018-024>027-034-035-043-044-300500-
   NORTHWEST OHIO

CITY           SKY/WX    TMP DP  RH WIND       PRES   REMARKS
DEFIANCE       CLOUDY    33  25  72 NW10      30.11R WCI  25
FINDLAY        CLOUDY    33  27  78 NW17      30.07R WCI  22
TOLEDO EXPRESS CLOUDY    31  23  72 NW8       30.07R WCI  23
TOLEDO EXEC    CLOUDY    32  24  72 NW17G26   30.07R WCI  21
LIMA           CLOUDY    33  26  75 NW17      30.09R WCI  22
$$

OHZ009>014-019>023-028>033-038-089-300500-
   NORTHEAST OHIO

CITY           SKY/WX    TMP DP  RH WIND       PRES   REMARKS
CLE-HOPKINS    FLURRIES  32  27  81 NW15      30.02R WCI  22
CLE-LAKEFRONT  CLOUDY    32  29  88 W16       29.99R WCI  21
CUY CO. ARPT   CLOUDY    34  30  86 NW18      29.98R FOG     WCI  23
LORAIN-ELYRIA  CLOUDY    31  28  89 NW15G22   30.01R WCI  20
ASHTABULA      CLOUDY    29  26  89 NW9G20    29.95R WCI  20
AKRON-CANTON   LGT SNOW  31  26  82 NW13      29.97R WCI  21
WOOSTER        NOT AVBL
MANSFIELD      CLOUDY    31  28  89 W14G20    30.01R FOG     WCI  21
YOUNGSTOWN     FLURRIES  29  25  85 NW13      29.94R WCI  19
$$

OHZ042-051>053-060>062-070>072-077>081-300500-
  SOUTHWEST OHIO

CITY           SKY/WX    TMP DP  RH WIND       PRES   REMARKS
CINC-COVINGTON CLOUDY    34  29  82 NW13      30.18R WCI  25
CINC-LUNKEN    CLOUDY    34  29  82 NW9G20    30.20R WCI  27
HAMILTON       CLOUDY    34  30  85 W10       30.19R WCI  26
DAYTON         NOT AVBL
WRIGHT-PAT AFB NOT AVBL
DAYTON GENERAL CLOUDY    33  29  85 NW12G20   30.13R WCI  24
WILMINGTON     FRZ RAIN  32  29  88 NW15      30.12R FOG     WCI  22
$$

OHZ036-037-039>041-045>050-054>059-063>069-073>076-082>088-300500-
  CENTRAL AND SOUTHEAST OHIO

CITY           SKY/WX    TMP DP  RH WIND       PRES   REMARKS
COLUMBUS       LGT SNOW  32  30  92 W10       30.07R FOG     WCI  24
OSU AIRPORT    CLOUDY    33  29  85 NW15      30.07R FOG     WCI  23
BOLTON FIELD   NOT AVBL
RICKENBACK AFB NOT AVBL
NEWARK         LGT SNOW  33  30  88 NW12G20   30.05R VSB 3/4 WCI  24
MARION         CLOUDY    32  29  88 NW10      30.06R FOG     WCI  24
LANCASTER      LGT SNOW  33  31  92 NW10      30.08R VSB 1   WCI  25
ZANESVILLE     LGT SNOW  32  30  92 W12       30.03R FOG     WCI  23
NEW PHILLY     FLURRIES  33  28  81 NW10G18   30.01R WCI  25
$$



USA.gov is the U.S. government's official web portal to all federal, state and local government web resources and services.